Location: Unspecified
(43.4680°N, 87.1740°E)
Time: 20:03:42
(UTC+00:00)

Terra - Pass Details

Date: 17 April 2021
Orbit: 701 x 703 km, 98.2° (Epoch: 12 May)

Event Time Altitude Azimuth Distance (km) Brightness Sun altitude
Exits shadow 15:49:11 50° 34° (NE) 897 2.3 -27.0°
Drops below altitude 10° 15:53:04 10° 355° (N) 2,180 5.0 -27.4°
Sets 15:55:21 0° 351° (N) 3,102 6.0 -27.7°
